SCP
0 0 0 0 0 0 0 0 0 0 0 0 0 0 0 0 0 0 0 0 0 0 0 0 0 0 0 0 0 0 0 0 0 0 0 0 0 0 0 0 0 0 0
0 0 0 0 0 0 0 0 0 0 0 0 0 0 0 0 0 0 0 0 0 0 0 0 0 0 0 0 0 0 0 0 0 0 0 0 0 0 0 0 0 0 0
0 0 0 0 0 0 0 0 0 0 0 0 0 0 0 0 0 0 0 0 0 0 0 0 0 0 0 0 0 0 0 0 0 0 0 0 0 0 0 0 0 0 0
0 0 0 0 0 0 0 0 0 0 0 0 0 0 0 0 0 0 0 0 0 0 0 0 0 0 0 0 0 0 0 0 0 0 0 0 0 0 0 0 0 0 0
0 0 0 0 0 0 0 0 0 0 0 0 0 0 0 0 0 0 0 0 0 0 0 0 0 0 0 0 0 0 0 0 0 0 0 0 0 0 0 0 0 0 0
0 0 0 0 0 0 0 0 0 0 0 0 0 0 0 0 0 0 0 0 0 0 0 0 0 0 0 0 0 0 0 0 0 0 0 0 0 0 0 0 0 0 0
1 0 0 0 0 0 0 0 0 0 0 0 0 0 0 0 0 0 0 0 0 0 0 0 0 0 0 0 0 0 0 0 0 0 0 0 0 0 0 0 0 0 0
1 1 0 0 0 0 0 0 0 0 0 0 0 0 0 0 0 0 0 0 0 0 0 0 0 0 0 0 0 0 0 0 0 0 0 0 0 0 0 0 0 0 0
2 2 1 1 0 0 0 0 0 0 0 0 0 0 0 0 0 0 0 0 0 0 0 0 0 0 0 0 0 0 0 0 0 0 0 0 0 0 0 0 0 0 0
1 2 2 1 0 0 0 0 0 0 0 0 0 0 0 0 0 0 0 0 0 0 0 0 0 0 0 0 0 0 0 0 0 0 0 0 0 0 0 0 0 0 0
2 1 1 1 1 0 0 0 0 0 0 0 0 0 0 0 0 0 0 0 0 0 0 0 0 0 0 0 0 0 0 0 0 0 0 0 0 0 0 0 0 0 0
2 2 1 1 1 0 0 0 0 0 0 0 0 0 0 0 0 0 0 0 0 0 0 0 0 0 0 0 0 0 0 0 0 0 0 0 0 0 0 0 0 0 0
3 1 1 1 1 1 0 0 0 0 0 0 0 0 0 0 0 0 0 0 0 0 0 0 0 0 0 0 0 0 0 0 0 0 0 0 0 0 0 0 0 0 0
2 1 0 0 0 0 0 0 0 0 0 0 0 0 0 0 0 0 0 0 0 0 0 0 0 0 0 0 0 0 0 0 0 0 0 0 0 0 0 0 0 -0 0
1 0 0 0 0 1 0 0 0 0 0 0 0 0 0 0 0 0 0 0 0 0 0 0 0 0 0 0 0 0 0 0 0 0 0 0 0 0 0 0 0 0 0
1 1 0 0 0 1 0 0 0 0 0 0 0 0 0 0 0 0 0 0 0 0 0 0 0 0 0 0 0 0 0 0 0 0 0 0 0 0 0 0 0 0 0
1 1 1 0 0 0 0 0 0 0 0 0 0 0 0 0 0 0 0 0 0 0 0 0 0 0 0 0 0 0 0 0 0 0 0 0 0 0 0 0 0 0 0
1 1 1 1 1 0 0 0 0 0 0 0 0 0 0 0 0 0 0 0 0 0 0 0 0 0 0 0 0 0 0 0 0 0 0 0 0 0 0 0 0 0 0
0 0 0 1 1 0 0 0 0 0 0 0 0 0 0 0 0 0 0 0 0 0 0 -0 0 0 0 0 0 0 0 0 0 0 0 0 0 0 0 0 0 0 0
0 0 1 0 0 0 0 0 0 0 0 0 0 0 0 0 0 0 -0 -0 -0 -0 -0 -0 0 0 0 0 0 0 0 0 0 0 0 0 0 0 0 0 0 0 0
0 0 0 0 0 0 0 0 0 0 0 0 0 0 0 0 -0 -0 -0 -0 -0 -0 -0 -0 0 0 0 0 0 0 0 0 0 0 0 0 0 0 0 0 0 0 -0
0 0 0 0 0 0 0 0 0 0 0 0 0 0 -0 -0 -0 -0 -0 -0 -0 -0 -0 -0 0 0 0 0 0 0 0 0 0 0 0 0 0 0 0 0 0 0 -0
0 0 0 0 0 0 0 0 0 0 0 0 0 -0 -0 -0 -0 -0 -0 -0 -0 -0 -0 0 -0 0 0 0 0 0 0 0 0 0 0 0 0 0 0 0 -0 -0 0
0 0 0 0 0 0 0 0 0 0 0 0 0 -0 -0 -0 0 -0 -0 -0 -0 -0 -0 -0 -0 0 0 -0 0 0 0 0 0 0 0 0 0 0 0 0 -0 -0 -0
0 0 0 0 0 0 0 0 0 0 0 0 0 0 -0 -0 -0 -0 -0 -0 0 -0 -0 -0 -0 0 0 -0 0 -0 0 0 0 0 0 0 0 0 0 0 0 -0 0
0 0 0 0 0 0 0 0 0 0 0 0 0 0 -0 -0 -0 -0 -0 0 -0 -0 -0 -0 0 -0 -0 -0 0 0 0 0 0 0 0 0 0 0 0 0 0 -0 -0
Wind_Speed_500mb
56 54 52 53 50 46 43 39 33 29 25 25 23 24 22 17 12 10 8 12 16 13 12 12 10 14 18 23 12 29 36 46 49 58 61 60 58 54 47 42 43 43 41
59 56 52 52 50 47 44 41 36 32 30 30 27 28 28 19 15 14 13 11 14 14 13 11 11 13 17 16 20 43 46 45 57 65 64 61 57 49 48 49 47 42 40
59 57 55 53 48 47 45 42 40 37 35 31 26 27 25 23 19 15 18 13 14 12 13 10 8 12 14 11 25 41 49 52 60 68 66 61 51 49 50 48 46 41 36
59 59 57 55 49 47 47 44 43 41 38 34 31 28 25 25 20 18 21 19 17 14 15 11 12 10 13 11 31 36 45 54 67 67 59 55 47 50 52 49 45 42 41
60 61 60 56 52 49 47 44 44 40 43 39 33 29 23 22 18 18 21 20 19 17 17 16 14 12 15 25 28 35 41 54 56 49 51 49 49 51 51 51 46 39 41
57 55 62 60 57 54 49 45 46 38 39 37 33 28 26 24 21 23 24 23 20 18 19 22 20 19 23 25 27 32 42 52 38 56 53 47 52 51 54 50 43 40 40
57 57 57 55 58 60 54 47 46 40 39 40 34 32 26 26 27 29 27 25 22 19 22 23 23 25 25 22 29 36 46 48 54 58 44 50 51 52 52 48 42 39 43
52 54 57 55 52 56 61 57 55 49 44 45 38 31 19 20 26 28 26 24 23 21 24 24 24 24 24 24 31 39 47 50 57 52 46 49 49 52 47 42 44 42 44
50 51 53 58 61 54 59 63 63 61 55 51 47 34 20 18 28 22 28 21 22 22 25 24 24 23 20 26 32 41 49 55 51 46 50 48 49 48 45 45 45 46 46
60 53 50 61 63 64 63 61 68 68 61 60 55 55 39 28 26 21 26 25 25 25 24 23 22 20 19 27 33 43 50 51 44 47 51 49 46 46 47 45 45 44 45
65 57 47 51 64 67 68 71 67 75 72 64 66 64 51 39 37 19 27 28 26 21 21 21 22 20 22 25 36 44 49 43 42 49 48 46 48 48 47 45 43 45 44
63 56 51 52 60 70 72 72 73 77 76 69 69 68 66 60 45 31 18 36 32 28 27 26 24 18 22 25 36 44 45 39 42 39 45 49 49 49 47 44 43 43 41
65 57 48 50 58 65 66 68 78 82 83 78 77 71 56 57 55 46 34 35 38 33 27 26 22 21 21 27 34 40 37 35 35 40 45 46 41 43 47 49 52 50 43
65 41 40 42 48 50 53 61 63 95 88 76 78 64 53 53 54 55 44 37 29 33 30 26 20 20 19 26 33 33 31 34 32 42 47 55 52 43 41 44 48 54 44
39 39 43 43 44 45 58 53 41 18 44 43 54 55 52 49 43 44 32 32 33 35 36 27 23 16 17 23 27 25 28 28 32 34 45 57 65 55 41 42 46 52 48
45 50 44 45 49 51 58 60 59 37 60 86 63 58 44 43 39 28 31 29 35 32 24 30 26 17 13 20 18 19 23 22 26 27 37 47 60 64 41 46 49 49 49
43 48 45 44 50 60 62 60 66 65 66 76 69 68 34 23 22 22 24 33 38 28 19 22 20 10 7 9 14 16 18 21 25 34 44 43 49 62 49 47 53 54 52
47 46 43 41 45 53 62 66 63 60 82 78 73 62 48 35 18 17 31 36 34 28 19 17 19 8 3 10 13 15 17 19 22 31 38 43 46 63 49 54 59 57 54
37 45 43 38 41 55 58 60 68 65 65 67 65 64 53 38 36 29 32 33 32 24 16 12 18 16 16 17 17 17 16 18 21 28 32 36 44 61 52 51 57 59 56
37 39 37 32 41 49 63 55 65 68 53 50 56 51 51 46 47 34 34 32 31 27 20 22 25 26 27 22 21 21 19 19 22 26 28 38 47 55 50 47 51 56 57
35 31 32 32 40 47 58 61 57 76 68 48 62 62 54 52 36 37 36 36 28 24 26 30 33 35 32 28 25 22 17 17 22 26 28 40 48 56 51 50 54 56 57
29 21 27 39 40 49 66 70 95 85 68 71 73 63 57 51 48 45 36 30 21 18 31 35 39 38 38 31 27 21 17 21 25 25 27 39 53 66 58 53 54 55 57
33 27 34 44 45 53 78 93 75 70 66 77 81 71 68 59 56 51 44 42 39 36 29 30 42 38 38 30 30 29 27 33 36 35 27 34 45 52 62 51 52 54 53
31 32 36 46 59 68 78 73 70 75 76 75 71 71 72 66 51 46 45 45 45 46 45 43 41 44 38 37 31 26 31 37 37 39 43 37 38 57 61 50 49 52 51
25 27 39 45 54 67 66 69 82 81 80 78 75 73 67 57 51 42 46 52 59 58 53 49 48 47 44 40 38 37 37 36 40 41 49 57 29 44 64 57 47 48 48
40 50 40 51 58 67 67 69 91 88 89 87 78 68 55 55 53 46 42 50 58 59 58 55 51 47 44 41 44 49 47 43 38 40 48 54 61 39 31 64 56 47 48
Wind_Direction_500mb
233 232 232 233 230 230 230 232 235 233 232 236 236 229 232 244 259 266 249 265 278 289 294 302 331 343 357 358 346 347 348 344 348 348 347 346 346 345 343 341 337 334 331
238 237 237 238 236 235 234 236 238 236 230 235 243 242 235 242 252 265 258 275 268 281 287 295 330 340 348 344 322 347 341 348 351 349 345 348 346 349 349 344 338 331 327
241 241 241 242 242 242 241 238 238 236 232 234 237 229 240 241 246 264 253 256 254 265 267 281 300 327 338 304 323 330 338 345 345 346 349 350 353 353 348 341 336 331 324
242 243 244 246 246 243 244 242 241 238 232 230 228 233 246 243 245 254 240 242 243 249 253 269 286 302 316 285 317 326 341 341 344 347 348 350 353 350 342 341 340 340 344
247 241 243 247 247 245 242 241 238 241 232 229 232 235 243 227 234 247 228 239 241 244 253 250 255 276 281 295 314 331 336 343 342 345 344 348 350 347 344 344 340 345 332
252 247 246 245 246 245 240 237 235 238 225 218 227 240 240 228 236 224 223 241 242 244 247 245 255 263 283 299 317 325 340 340 346 337 338 346 349 346 345 344 340 340 330
256 260 251 249 248 245 241 236 230 223 218 218 230 241 236 231 222 216 216 229 236 236 246 248 260 273 287 299 314 330 338 347 336 333 341 346 348 346 344 344 346 333 335
256 258 259 253 249 248 240 231 227 221 220 226 230 227 194 213 216 216 223 224 235 235 244 253 258 266 275 300 317 335 342 337 332 335 342 347 345 341 344 349 345 341 338
254 262 262 255 254 250 244 233 227 224 224 228 230 215 192 209 207 217 233 225 230 232 241 245 249 251 277 303 325 337 335 337 336 339 343 346 344 347 347 345 344 341 339
246 253 264 265 262 257 247 239 228 228 227 230 226 219 226 215 192 193 211 216 218 225 231 225 228 252 284 310 330 331 337 339 341 344 346 348 350 350 351 350 349 348 346
246 246 258 265 263 259 254 245 235 230 227 232 227 216 214 218 220 199 191 196 198 195 197 209 233 257 292 314 327 335 339 344 347 350 354 3 3 2 358 356 356 354 352
244 244 251 261 262 258 258 253 241 233 229 230 226 226 228 225 222 217 197 193 196 186 199 213 236 267 289 319 330 337 344 349 355 4 15 21 19 14 11 8 2 356 357
241 245 260 266 268 260 257 254 246 231 229 225 223 226 238 234 235 241 240 204 193 186 198 218 240 265 295 319 332 340 350 357 10 14 12 10 12 8 6 6 3 360 358
242 251 269 272 264 257 255 249 260 236 233 222 223 229 233 231 235 246 256 225 187 191 205 222 239 266 299 320 334 346 357 10 18 15 25 23 14 2 1 2 1 355 357
259 268 267 261 257 253 242 241 211 219 205 212 226 230 226 226 237 252 259 247 233 198 204 218 232 262 299 325 338 354 9 18 17 29 34 29 21 12 8 10 1 1 7
251 260 260 259 248 243 238 235 233 244 215 203 225 235 230 234 237 241 245 237 235 237 203 215 225 247 297 330 348 6 21 37 22 34 23 21 17 12 15 17 9 10 7
245 254 256 251 245 237 231 230 224 202 197 202 216 230 217 229 209 222 235 236 226 226 219 192 201 217 308 345 13 28 53 43 49 36 26 20 10 8 16 16 18 16 17
245 246 245 239 241 233 228 226 223 207 211 213 216 216 216 204 193 219 242 222 218 223 235 188 180 177 118 65 61 63 59 58 44 27 27 19 9 12 22 24 22 20 23
239 243 238 230 233 229 227 220 199 196 205 212 211 215 187 185 192 223 226 215 208 202 174 165 161 141 110 88 86 72 65 50 33 39 29 18 14 21 33 29 24 19 23
256 232 229 220 226 225 211 207 202 201 200 189 179 181 185 189 194 216 202 194 181 173 159 159 138 121 113 106 89 79 73 61 57 53 31 24 19 22 32 35 29 23 27
225 225 226 220 223 221 207 200 203 168 152 164 189 191 189 186 188 186 181 173 172 165 151 144 126 124 116 106 90 80 71 54 54 47 33 24 22 26 28 32 31 29 26
222 228 234 228 217 207 185 178 167 164 168 170 177 177 169 166 165 163 161 150 134 142 143 137 126 125 114 101 89 80 63 59 62 51 44 36 33 31 29 30 31 32 31
240 238 239 219 215 198 177 170 173 177 174 172 169 168 160 159 162 161 157 147 137 128 123 121 125 120 111 98 83 71 65 71 68 55 50 44 35 34 31 33 29 33 36
221 228 225 209 201 191 189 187 183 176 171 168 165 164 160 160 165 160 155 143 134 130 125 125 123 114 105 92 76 69 81 82 68 57 45 51 45 41 37 39 33 34 38
213 242 218 212 205 200 197 197 178 173 167 162 160 160 157 157 156 164 153 144 136 131 128 125 118 110 99 86 76 81 88 82 73 62 49 49 49 46 38 41 44 39 42
193 225 206 202 194 189 189 188 179 172 162 157 153 152 153 154 151 148 146 141 135 133 133 129 121 111 102 91 84 77 72 69 76 67 56 52 46 49 44 40 49 45 46
Wind_Speed_850mb
56 54 52 53 50 46 43 39 33 29 25 25 23 24 22 17 12 10 8 12 16 13 12 12 10 14 18 23 12 29 36 46 49 58 61 60 58 54 47 42 43 43 41
59 56 52 52 50 47 44 41 36 32 30 30 27 28 28 19 15 14 13 11 14 14 13 11 11 13 17 16 20 43 46 45 57 65 64 61 57 49 48 49 47 42 40
59 57 55 53 48 47 45 42 40 37 35 31 26 27 25 23 19 15 18 13 14 12 13 10 8 12 14 11 25 41 49 52 60 68 66 61 51 49 50 48 46 41 36
59 59 57 55 49 47 47 44 43 41 38 34 31 28 25 25 20 18 21 19 17 14 15 11 12 10 13 11 31 36 45 54 67 67 59 55 47 50 52 49 45 42 41
60 61 60 56 52 49 47 44 44 40 43 39 33 29 23 22 18 18 21 20 19 17 17 16 14 12 15 25 28 35 41 54 56 49 51 49 49 51 51 51 46 39 41
57 55 62 60 57 54 49 45 46 38 39 37 33 28 26 24 21 23 24 23 20 18 19 22 20 19 23 25 27 32 42 52 38 56 53 47 52 51 54 50 43 40 40
57 57 57 55 58 60 54 47 46 40 39 40 34 32 26 26 27 29 27 25 22 19 22 23 23 25 25 22 29 36 46 48 54 58 44 50 51 52 52 48 42 39 43
52 54 57 55 52 56 61 57 55 49 44 45 38 31 19 20 26 28 26 24 23 21 24 24 24 24 24 24 31 39 47 50 57 52 46 49 49 52 47 42 44 42 44
50 51 53 58 61 54 59 63 63 61 55 51 47 34 20 18 28 22 28 21 22 22 25 24 24 23 20 26 32 41 49 55 51 46 50 48 49 48 45 45 45 46 46
60 53 50 61 63 64 63 61 68 68 61 60 55 55 39 28 26 21 26 25 25 25 24 23 22 20 19 27 33 43 50 51 44 47 51 49 46 46 47 45 45 44 45
65 57 47 51 64 67 68 71 67 75 72 64 66 64 51 39 37 19 27 28 26 21 21 21 22 20 22 25 36 44 49 43 42 49 48 46 48 48 47 45 43 45 44
63 56 51 52 60 70 72 72 73 77 76 69 69 68 66 60 45 31 18 36 32 28 27 26 24 18 22 25 36 44 45 39 42 39 45 49 49 49 47 44 43 43 41
65 57 48 50 58 65 66 68 78 82 83 78 77 71 56 57 55 46 34 35 38 33 27 26 22 21 21 27 34 40 37 35 35 40 45 46 41 43 47 49 52 50 43
65 41 40 42 48 50 53 61 63 95 88 76 78 64 53 53 54 55 44 37 29 33 30 26 20 20 19 26 33 33 31 34 32 42 47 55 52 43 41 44 48 54 44
39 39 43 43 44 45 58 53 41 18 44 43 54 55 52 49 43 44 32 32 33 35 36 27 23 16 17 23 27 25 28 28 32 34 45 57 65 55 41 42 46 52 48
45 50 44 45 49 51 58 60 59 37 60 86 63 58 44 43 39 28 31 29 35 32 24 30 26 17 13 20 18 19 23 22 26 27 37 47 60 64 41 46 49 49 49
43 48 45 44 50 60 62 60 66 65 66 76 69 68 34 23 22 22 24 33 38 28 19 22 20 10 7 9 14 16 18 21 25 34 44 43 49 62 49 47 53 54 52
47 46 43 41 45 53 62 66 63 60 82 78 73 62 48 35 18 17 31 36 34 28 19 17 19 8 3 10 13 15 17 19 22 31 38 43 46 63 49 54 59 57 54
37 45 43 38 41 55 58 60 68 65 65 67 65 64 53 38 36 29 32 33 32 24 16 12 18 16 16 17 17 17 16 18 21 28 32 36 44 61 52 51 57 59 56
37 39 37 32 41 49 63 55 65 68 53 50 56 51 51 46 47 34 34 32 31 27 20 22 25 26 27 22 21 21 19 19 22 26 28 38 47 55 50 47 51 56 57
35 31 32 32 40 47 58 61 57 76 68 48 62 62 54 52 36 37 36 36 28 24 26 30 33 35 32 28 25 22 17 17 22 26 28 40 48 56 51 50 54 56 57
29 21 27 39 40 49 66 70 95 85 68 71 73 63 57 51 48 45 36 30 21 18 31 35 39 38 38 31 27 21 17 21 25 25 27 39 53 66 58 53 54 55 57
33 27 34 44 45 53 78 93 75 70 66 77 81 71 68 59 56 51 44 42 39 36 29 30 42 38 38 30 30 29 27 33 36 35 27 34 45 52 62 51 52 54 53
31 32 36 46 59 68 78 73 70 75 76 75 71 71 72 66 51 46 45 45 45 46 45 43 41 44 38 37 31 26 31 37 37 39 43 37 38 57 61 50 49 52 51
25 27 39 45 54 67 66 69 82 81 80 78 75 73 67 57 51 42 46 52 59 58 53 49 48 47 44 40 38 37 37 36 40 41 49 57 29 44 64 57 47 48 48
40 50 40 51 58 67 67 69 91 88 89 87 78 68 55 55 53 46 42 50 58 59 58 55 51 47 44 41 44 49 47 43 38 40 48 54 61 39 31 64 56 47 48
Wind_Direction_850mb
233 232 232 233 230 230 230 232 235 233 232 236 236 229 232 244 259 266 249 265 278 289 294 302 331 343 357 358 346 347 348 344 348 348 347 346 346 345 343 341 337 334 331
238 237 237 238 236 235 234 236 238 236 230 235 243 242 235 242 252 265 258 275 268 281 287 295 330 340 348 344 322 347 341 348 351 349 345 348 346 349 349 344 338 331 327
241 241 241 242 242 242 241 238 238 236 232 234 237 229 240 241 246 264 253 256 254 265 267 281 300 327 338 304 323 330 338 345 345 346 349 350 353 353 348 341 336 331 324
242 243 244 246 246 243 244 242 241 238 232 230 228 233 246 243 245 254 240 242 243 249 253 269 286 302 316 285 317 326 341 341 344 347 348 350 353 350 342 341 340 340 344
247 241 243 247 247 245 242 241 238 241 232 229 232 235 243 227 234 247 228 239 241 244 253 250 255 276 281 295 314 331 336 343 342 345 344 348 350 347 344 344 340 345 332
252 247 246 245 246 245 240 237 235 238 225 218 227 240 240 228 236 224 223 241 242 244 247 245 255 263 283 299 317 325 340 340 346 337 338 346 349 346 345 344 340 340 330
256 260 251 249 248 245 241 236 230 223 218 218 230 241 236 231 222 216 216 229 236 236 246 248 260 273 287 299 314 330 338 347 336 333 341 346 348 346 344 344 346 333 335
256 258 259 253 249 248 240 231 227 221 220 226 230 227 194 213 216 216 223 224 235 235 244 253 258 266 275 300 317 335 342 337 332 335 342 347 345 341 344 349 345 341 338
254 262 262 255 254 250 244 233 227 224 224 228 230 215 192 209 207 217 233 225 230 232 241 245 249 251 277 303 325 337 335 337 336 339 343 346 344 347 347 345 344 341 339
246 253 264 265 262 257 247 239 228 228 227 230 226 219 226 215 192 193 211 216 218 225 231 225 228 252 284 310 330 331 337 339 341 344 346 348 350 350 351 350 349 348 346
246 246 258 265 263 259 254 245 235 230 227 232 227 216 214 218 220 199 191 196 198 195 197 209 233 257 292 314 327 335 339 344 347 350 354 3 3 2 358 356 356 354 352
244 244 251 261 262 258 258 253 241 233 229 230 226 226 228 225 222 217 197 193 196 186 199 213 236 267 289 319 330 337 344 349 355 4 15 21 19 14 11 8 2 356 357
241 245 260 266 268 260 257 254 246 231 229 225 223 226 238 234 235 241 240 204 193 186 198 218 240 265 295 319 332 340 350 357 10 14 12 10 12 8 6 6 3 360 358
242 251 269 272 264 257 255 249 260 236 233 222 223 229 233 231 235 246 256 225 187 191 205 222 239 266 299 320 334 346 357 10 18 15 25 23 14 2 1 2 1 355 357
259 268 267 261 257 253 242 241 211 219 205 212 226 230 226 226 237 252 259 247 233 198 204 218 232 262 299 325 338 354 9 18 17 29 34 29 21 12 8 10 1 1 7
251 260 260 259 248 243 238 235 233 244 215 203 225 235 230 234 237 241 245 237 235 237 203 215 225 247 297 330 348 6 21 37 22 34 23 21 17 12 15 17 9 10 7
245 254 256 251 245 237 231 230 224 202 197 202 216 230 217 229 209 222 235 236 226 226 219 192 201 217 308 345 13 28 53 43 49 36 26 20 10 8 16 16 18 16 17
245 246 245 239 241 233 228 226 223 207 211 213 216 216 216 204 193 219 242 222 218 223 235 188 180 177 118 65 61 63 59 58 44 27 27 19 9 12 22 24 22 20 23
239 243 238 230 233 229 227 220 199 196 205 212 211 215 187 185 192 223 226 215 208 202 174 165 161 141 110 88 86 72 65 50 33 39 29 18 14 21 33 29 24 19 23
256 232 229 220 226 225 211 207 202 201 200 189 179 181 185 189 194 216 202 194 181 173 159 159 138 121 113 106 89 79 73 61 57 53 31 24 19 22 32 35 29 23 27
225 225 226 220 223 221 207 200 203 168 152 164 189 191 189 186 188 186 181 173 172 165 151 144 126 124 116 106 90 80 71 54 54 47 33 24 22 26 28 32 31 29 26
222 228 234 228 217 207 185 178 167 164 168 170 177 177 169 166 165 163 161 150 134 142 143 137 126 125 114 101 89 80 63 59 62 51 44 36 33 31 29 30 31 32 31
240 238 239 219 215 198 177 170 173 177 174 172 169 168 160 159 162 161 157 147 137 128 123 121 125 120 111 98 83 71 65 71 68 55 50 44 35 34 31 33 29 33 36
221 228 225 209 201 191 189 187 183 176 171 168 165 164 160 160 165 160 155 143 134 130 125 125 123 114 105 92 76 69 81 82 68 57 45 51 45 41 37 39 33 34 38
213 242 218 212 205 200 197 197 178 173 167 162 160 160 157 157 156 164 153 144 136 131 128 125 118 110 99 86 76 81 88 82 73 62 49 49 49 46 38 41 44 39 42
193 225 206 202 194 189 189 188 179 172 162 157 153 152 153 154 151 148 146 141 135 133 133 129 121 111 102 91 84 77 72 69 76 67 56 52 46 49 44 40 49 45 46